KG9NS Weather Reports


Display with metric or nautical units.
time (UTC)temp
F
wind
direction
speed
MPH
gust
MPH
rain 1hr
in
rain 24hr
in
rain mn
in
humidity
%
barometer
mb
20260509002232 60 0 0.0 0.0 0.00 0.00 0.01 79 1009.7
20260509001731 60 81 0.0 1.0 0.01 0.00 0.01 77 1009.8
20260509001232 60 0 0.0 0.0 0.01 0.00 0.01 78 1009.8
20260509000732 60 0 0.0 0.0 0.01 0.00 0.01 78 1009.8
20260509000234 60 0 0.0 0.0 0.01 0.00 0.01 78 1009.8
20260508235733 60 36 0.0 0.0 0.01 0.00 0.01 77 1009.8
20260508235233 60 0 0.0 0.0 0.01 0.00 0.01 78 1009.7
20260508234731 61 0 0.0 0.0 0.01 0.00 0.01 77 1009.7
20260508234232 61 27 0.0 1.0 0.00 0.00 0.01 75 1009.7
20260508233732 61 20 1.0 2.0 0.00 0.00 0.01 73 1009.6
20260508233232 62 0 0.0 0.0 0.00 0.00 0.00 73 1009.7
20260508232733 62 27 1.0 2.0 0.00 0.00 0.00 69 1009.8
20260508232233 63 0 0.0 0.0 0.00 0.00 0.00 68 1009.9
20260508231732 63 206 1.0 2.0 0.00 0.00 0.00 66 1009.9
20260508231232 63 0 0.0 0.0 0.00 0.00 0.00 63 1009.8
20260508230732 64 0 0.0 0.0 0.00 0.00 0.00 61 1009.7
20260508230232 64 0 0.0 0.0 0.00 0.00 0.00 59 1009.7
20260508225732 65 0 0.0 0.0 0.00 0.00 0.00 57 1009.7
20260508225234 65 322 0.0 1.0 0.00 0.00 0.00 55 1009.6
20260508224732 66 0 0.0 0.0 0.00 0.00 0.00 54 1009.5
20260508224231 66 191 0.0 1.0 0.00 0.00 0.00 51 1009.5
20260508223731 66 161 0.0 2.0 0.00 0.00 0.00 50 1009.5
20260508223234 66 218 0.0 1.0 0.00 0.00 0.00 50 1009.4
20260508222733 67 186 0.0 0.0 0.00 0.00 0.00 49 1009.4
20260508222236 67 217 3.0 3.0 0.00 0.00 0.00 48 1009.5
20260508221732 67 220 2.0 3.0 0.00 0.00 0.00 47 1009.5
20260508221233 67 225 2.0 4.0 0.00 0.00 0.00 48 1009.5
20260508220733 67 233 4.0 7.0 0.00 0.00 0.00 47 1009.5
20260508220233 67 223 3.0 4.0 0.00 0.00 0.00 47 1009.5
20260508215732 67 231 3.0 4.0 0.00 0.00 0.00 47 1009.4
20260508215233 67 235 4.0 5.0 0.00 0.00 0.00 47 1009.5
20260508214733 67 212 6.0 8.0 0.00 0.00 0.00 46 1009.4
20260508214234 67 193 5.0 7.0 0.00 0.00 0.00 46 1009.4
20260508213731 67 228 2.0 4.0 0.00 0.00 0.00 47 1009.4
20260508213231 67 185 2.0 4.0 0.00 0.00 0.00 47 1009.4
20260508212733 67 214 4.0 5.0 0.00 0.00 0.00 47 1009.5
20260508212231 67 224 4.0 5.0 0.00 0.00 0.00 47 1009.6
20260508211733 67 223 3.0 4.0 0.00 0.00 0.00 46 1009.6
20260508211232 67 235 6.0 9.0 0.00 0.00 0.00 46 1009.7
20260508210732 67 205 1.0 2.0 0.00 0.00 0.00 46 1009.6
20260508210233 67 211 3.0 4.0 0.00 0.00 0.00 46 1009.8
20260508205731 67 236 4.0 6.0 0.00 0.00 0.00 46 1009.8
20260508205232 67 203 4.0 7.0 0.00 0.00 0.00 46 1010.0
20260508204733 67 229 7.0 13.0 0.00 0.00 0.00 45 1010.1
20260508204233 67 200 3.0 4.0 0.00 0.00 0.00 46 1010.2
20260508203738 67 240 6.0 8.0 0.00 0.00 0.00 45 1010.3
20260508203235 67 231 8.0 13.0 0.00 0.00 0.00 45 1010.3
20260508202732 67 228 8.0 11.0 0.00 0.00 0.00 45 1010.4
20260508202233 67 222 6.0 7.0 0.00 0.00 0.00 45 1010.4
20260508201734 67 232 4.0 6.0 0.00 0.00 0.00 45 1010.5
20260508201231 67 220 7.0 11.0 0.00 0.00 0.00 45 1010.5
20260508200732 67 233 6.0 9.0 0.00 0.00 0.00 45 1010.6
20260508200233 67 231 5.0 11.0 0.00 0.00 0.00 45 1010.5
20260508195733 67 234 8.0 12.0 0.00 0.00 0.00 44 1010.5
20260508195233 67 218 7.0 11.0 0.00 0.00 0.00 44 1010.6
20260508194732 67 229 6.0 10.0 0.00 0.00 0.00 44 1010.7
20260508194231 67 216 4.0 5.0 0.00 0.00 0.00 45 1010.7
20260508193733 67 222 7.0 9.0 0.00 0.00 0.00 44 1010.8
20260508193231 67 227 5.0 8.0 0.00 0.00 0.00 44 1010.8
20260508192732 67 231 11.0 17.0 0.00 0.00 0.00 43 1010.7
20260508192233 68 228 6.0 8.0 0.00 0.00 0.00 44 1010.8
20260508191733 68 212 5.0 8.0 0.00 0.00 0.00 44 1010.9
20260508191231 68 235 9.0 12.0 0.00 0.00 0.00 43 1010.9
20260508190734 69 226 9.0 11.0 0.00 0.00 0.00 43 1010.9
20260508190231 69 222 9.0 13.0 0.00 0.00 0.00 44 1011.1
20260508185733 68 201 6.0 10.0 0.00 0.00 0.00 44 1011.0
20260508185232 68 215 11.0 15.0 0.00 0.00 0.00 44 1011.2
20260508184731 68 221 10.0 13.0 0.00 0.00 0.00 44 1011.5
20260508184234 68 230 10.0 13.0 0.00 0.00 0.00 45 1011.5
20260508183733 68 228 8.0 10.0 0.00 0.00 0.00 45 1011.6
20260508183232 68 208 6.0 10.0 0.00 0.00 0.00 45 1011.7
20260508182734 68 220 9.0 14.0 0.00 0.00 0.00 44 1011.8
20260508182233 68 191 7.0 10.0 0.00 0.00 0.00 46 1011.7
20260508181733 68 224 8.0 10.0 0.00 0.00 0.00 46 1011.8
20260508181231 68 221 6.0 13.0 0.00 0.00 0.00 47 1011.9
20260508180732 67 233 9.0 15.0 0.00 0.00 0.00 45 1012.0
20260508180234 67 213 4.0 6.0 0.00 0.00 0.00 47 1012.0
20260508175733 67 234 5.0 7.0 0.00 0.00 0.00 47 1012.3
20260508175233 67 211 6.0 9.0 0.00 0.00 0.00 48 1012.3
20260508174734 66 222 7.0 12.0 0.00 0.00 0.00 48 1012.3
20260508174232 66 212 7.0 11.0 0.00 0.00 0.00 47 1012.3
20260508173734 65 227 8.0 12.0 0.00 0.00 0.00 49 1012.3
20260508173233 65 226 5.0 7.0 0.00 0.00 0.00 49 1012.6
20260508172733 65 197 6.0 9.0 0.00 0.00 0.00 49 1012.7
20260508172232 65 238 9.0 13.0 0.00 0.00 0.00 49 1012.8
20260508171732 65 226 4.0 6.0 0.00 0.00 0.00 50 1012.9
20260508171232 65 225 8.0 11.0 0.00 0.00 0.00 50 1012.9
20260508170734 65 232 6.0 10.0 0.00 0.00 0.00 50 1012.9
20260508170234 66 230 11.0 17.0 0.00 0.00 0.00 49 1013.0
20260508165732 66 243 4.0 6.0 0.00 0.00 0.00 50 1013.0
20260508165233 66 228 7.0 9.0 0.00 0.00 0.00 49 1013.3
20260508164733 66 215 6.0 8.0 0.00 0.00 0.00 50 1013.4
20260508164233 65 230 6.0 9.0 0.00 0.00 0.00 51 1013.5
20260508163732 66 224 9.0 12.0 0.00 0.00 0.00 50 1013.6
20260508163233 66 206 7.0 11.0 0.00 0.00 0.00 50 1013.6
20260508162732 65 193 6.0 8.0 0.00 0.00 0.00 51 1013.7
20260508162234 65 230 6.0 9.0 0.00 0.00 0.00 52 1013.8
20260508161732 65 215 5.0 8.0 0.00 0.00 0.00 52 1013.7
20260508161233 65 203 6.0 13.0 0.00 0.00 0.00 52 1013.8
20260508160733 64 204 7.0 12.0 0.00 0.00 0.00 52 1013.8
20260508160233 64 226 8.0 13.0 0.00 0.00 0.00 53 1013.8
20260508155732 64 228 8.0 11.0 0.00 0.00 0.00 53 1013.9
20260508155232 64 194 7.0 12.0 0.00 0.00 0.00 52 1014.0
20260508154732 63 182 9.0 11.0 0.00 0.00 0.00 53 1014.1
20260508154234 63 196 7.0 9.0 0.00 0.00 0.00 54 1014.1
20260508153732 63 208 7.0 11.0 0.00 0.00 0.00 54 1014.2
20260508153234 63 225 6.0 8.0 0.00 0.00 0.00 54 1014.2
20260508152732 62 231 8.0 13.0 0.00 0.00 0.00 54 1014.3
20260508152233 62 228 6.0 9.0 0.00 0.00 0.00 55 1014.3
20260508151737 62 217 7.0 12.0 0.00 0.00 0.00 54 1014.4
20260508151233 62 243 8.0 11.0 0.00 0.00 0.00 54 1014.4
20260508150734 62 183 6.0 9.0 0.00 0.00 0.00 56 1014.4
20260508150233 61 229 6.0 8.0 0.00 0.00 0.00 55 1014.5
20260508145735 61 229 7.0 9.0 0.00 0.00 0.00 55 1014.4
20260508145236 60 224 7.0 11.0 0.00 0.00 0.00 55 1014.5
20260508144734 60 229 6.0 9.0 0.00 0.00 0.00 55 1014.5
20260508144234 60 249 6.0 8.0 0.00 0.00 0.00 55 1014.4
20260508143733 60 231 9.0 12.0 0.00 0.00 0.00 55 1014.5
20260508143233 59 234 7.0 11.0 0.00 0.00 0.00 55 1014.6
20260508142733 59 232 8.0 12.0 0.00 0.00 0.00 55 1014.6
20260508142234 59 233 6.0 8.0 0.00 0.00 0.00 56 1014.7
20260508141733 59 222 8.0 10.0 0.00 0.00 0.00 55 1014.7
20260508141233 59 251 7.0 12.0 0.00 0.00 0.00 56 1014.8
20260508140733 58 226 11.0 15.0 0.00 0.00 0.00 55 1014.9
20260508140233 58 222 12.0 15.0 0.00 0.00 0.00 55 1014.9
20260508135733 58 236 11.0 14.0 0.00 0.00 0.00 56 1014.8
20260508135234 58 211 6.0 11.0 0.00 0.00 0.00 56 1014.8
20260508134734 57 211 5.0 8.0 0.00 0.00 0.00 56 1014.8
20260508134235 57 225 9.0 13.0 0.00 0.00 0.00 55 1014.8
20260508133734 57 227 9.0 13.0 0.00 0.00 0.00 56 1014.8
20260508133234 57 223 7.0 12.0 0.00 0.00 0.00 57 1014.8
20260508132732 56 216 6.0 8.0 0.00 0.00 0.00 59 1014.8
20260508132233 56 211 6.0 8.0 0.00 0.00 0.00 59 1014.8
20260508131733 56 216 5.0 9.0 0.00 0.00 0.00 60 1014.8
20260508131234 55 211 7.0 11.0 0.00 0.00 0.00 59 1014.8
20260508130733 55 218 7.0 9.0 0.00 0.00 0.00 59 1014.8
20260508130234 55 221 7.0 10.0 0.00 0.00 0.00 59 1014.8
20260508125734 55 221 8.0 10.0 0.00 0.00 0.00 60 1014.7
20260508125233 55 226 8.0 11.0 0.00 0.00 0.00 60 1014.7
20260508124734 55 195 3.0 4.0 0.00 0.00 0.00 62 1014.7
20260508124233 54 172 5.0 7.0 0.00 0.00 0.00 62 1014.7
20260508123733 54 225 5.0 7.0 0.00 0.00 0.00 62 1014.6
20260508123233 53 177 5.0 8.0 0.00 0.00 0.00 63 1014.6
20260508122733 53 215 5.0 7.0 0.00 0.00 0.00 64 1014.5
20260508122234 53 221 7.0 11.0 0.00 0.00 0.00 64 1014.6
20260508121733 52 216 4.0 7.0 0.00 0.00 0.00 65 1014.6
20260508121233 52 203 5.0 7.0 0.00 0.00 0.00 66 1014.6
20260508120734 51 203 4.0 7.0 0.00 0.00 0.00 67 1014.6
20260508120232 50 192 3.0 4.0 0.00 0.00 0.00 69 1014.6
20260508115732 50 160 2.0 4.0 0.00 0.00 0.00 70 1014.5
20260508115231 50 193 0.0 1.0 0.00 0.00 0.00 71 1014.5
20260508114732 50 158 2.0 4.0 0.00 0.00 0.00 71 1014.4
20260508114231 50 186 3.0 6.0 0.00 0.00 0.00 71 1014.4
20260508113731 49 176 1.0 2.0 0.00 0.00 0.00 72 1014.4
20260508113231 49 163 2.0 4.0 0.00 0.00 0.00 72 1014.3
20260508112731 49 161 2.0 3.0 0.00 0.00 0.00 72 1014.3
20260508112232 49 175 2.0 4.0 0.00 0.00 0.00 72 1014.3
20260508111732 49 154 2.0 3.0 0.00 0.00 0.00 73 1014.2
20260508111231 48 160 2.0 3.0 0.00 0.00 0.00 73 1014.2
20260508110731 48 166 1.0 2.0 0.00 0.00 0.00 74 1014.1
20260508110231 48 145 1.0 2.0 0.00 0.00 0.00 75 1014.0
20260508105733 48 166 2.0 2.0 0.00 0.00 0.00 75 1014.1
20260508105231 48 151 2.0 3.0 0.00 0.00 0.00 75 1014.0
20260508104732 47 150 2.0 2.0 0.00 0.00 0.00 76 1014.1
20260508104231 47 143 2.0 3.0 0.00 0.00 0.00 78 1014.0
20260508103731 47 141 1.0 2.0 0.00 0.00 0.00 78 1014.1
20260508103233 46 139 1.0 2.0 0.00 0.00 0.00 78 1014.1
20260508102732 46 158 0.0 1.0 0.00 0.00 0.00 79 1014.1
20260508102233 46 168 1.0 2.0 0.00 0.00 0.00 79 1014.1
20260508101731 46 150 0.0 1.0 0.00 0.00 0.00 79 1014.1
20260508101233 46 0 0.0 0.0 0.00 0.00 0.00 79 1014.2
20260508100733 46 0 0.0 0.0 0.00 0.00 0.00 80 1014.1
20260508100233 46 62 0.0 2.0 0.00 0.00 0.00 79 1014.1
20260508095731 46 85 0.0 1.0 0.00 0.00 0.00 79 1014.1
20260508095233 46 155 0.0 1.0 0.00 0.00 0.00 79 1014.1
20260508094731 46 143 2.0 3.0 0.00 0.00 0.00 80 1014.0
20260508094231 46 142 1.0 2.0 0.00 0.00 0.00 81 1014.1
20260508093732 45 115 1.0 2.0 0.00 0.00 0.00 83 1014.1
20260508093231 45 174 1.0 2.0 0.00 0.00 0.00 84 1014.2
20260508092732 44 172 0.0 2.0 0.00 0.00 0.00 85 1014.2
20260508092231 44 155 0.0 1.0 0.00 0.00 0.00 85 1014.2
20260508091733 44 184 0.0 2.0 0.00 0.00 0.00 85 1014.1
20260508091232 44 190 0.0 1.0 0.00 0.00 0.00 84 1014.1
20260508090731 44 171 1.0 2.0 0.00 0.00 0.00 84 1014.1
20260508090231 44 177 2.0 3.0 0.00 0.00 0.00 84 1014.1
20260508085731 45 188 1.0 3.0 0.00 0.00 0.00 83 1014.2
20260508085232 45 166 1.0 2.0 0.00 0.00 0.00 82 1014.3
20260508084736 45 190 0.0 0.0 0.00 0.00 0.00 82 1014.2
20260508084231 44 51 0.0 1.0 0.00 0.00 0.00 81 1014.3
20260508083731 44 358 1.0 2.0 0.00 0.00 0.00 81 1014.3
20260508083231 44 354 1.0 2.0 0.00 0.00 0.00 81 1014.2
20260508082732 44 24 1.0 2.0 0.00 0.00 0.00 81 1014.1
20260508082231 44 41 1.0 1.0 0.00 0.00 0.00 80 1014.0
20260508081731 44 38 0.0 1.0 0.00 0.00 0.00 79 1014.0
20260508081231 44 48 0.0 2.0 0.00 0.00 0.00 78 1014.0
20260508080732 44 69 0.0 3.0 0.00 0.00 0.00 79 1014.0
20260508080231 43 54 2.0 4.0 0.00 0.00 0.00 80 1013.9
20260508075732 43 45 0.0 2.0 0.00 0.00 0.00 80 1013.9
20260508075232 44 55 0.0 1.0 0.00 0.00 0.00 80 1013.9
20260508074733 44 79 0.0 1.0 0.00 0.00 0.00 79 1013.9
20260508074231 44 104 0.0 1.0 0.00 0.00 0.00 78 1014.0
20260508073731 44 66 0.0 2.0 0.00 0.00 0.00 77 1014.0
20260508073234 44 113 0.0 2.0 0.00 0.00 0.00 77 1013.9
20260508072731 45 168 1.0 3.0 0.00 0.00 0.00 76 1013.9
20260508072231 45 73 1.0 3.0 0.00 0.00 0.00 76 1013.9
20260508071731 45 72 0.0 1.0 0.00 0.00 0.00 74 1014.0
20260508071232 46 73 0.0 3.0 0.00 0.00 0.00 73 1014.0
20260508070731 46 62 0.0 1.0 0.00 0.00 0.00 72 1014.0
20260508070232 46 148 1.0 3.0 0.00 0.00 0.00 71 1014.1
20260508065731 46 163 1.0 3.0 0.00 0.00 0.00 71 1014.1
20260508065232 46 132 1.0 2.0 0.00 0.00 0.00 72 1014.1
20260508064731 46 187 1.0 3.0 0.00 0.00 0.00 71 1014.1
20260508064231 46 133 1.0 3.0 0.00 0.00 0.00 72 1014.3
20260508063732 46 137 2.0 4.0 0.00 0.00 0.00 73 1014.4
20260508063231 46 140 1.0 2.0 0.00 0.00 0.00 73 1014.5
20260508062735 46 189 0.0 2.0 0.00 0.00 0.00 73 1014.6
20260508062233 46 208 0.0 1.0 0.00 0.00 0.00 72 1014.6
20260508061732 46 132 1.0 2.0 0.00 0.00 0.00 73 1014.6
20260508061231 46 202 0.0 2.0 0.00 0.00 0.00 72 1014.6
20260508060732 46 134 0.0 1.0 0.00 0.00 0.00 73 1014.7
20260508055754 47 156 0.0 1.0 0.00 0.00 0.00 72 1014.6
20260508055231 47 136 2.0 3.0 0.00 0.00 0.00 73 1014.6
20260508054731 46 120 2.0 2.0 0.00 0.00 0.00 73 1014.6
20260508054232 47 184 0.0 2.0 0.00 0.00 0.00 73 1014.7
20260508053732 47 174 0.0 0.0 0.00 0.00 0.00 73 1014.7
20260508053231 47 214 2.0 3.0 0.00 0.00 0.00 72 1014.7
20260508052732 48 178 0.0 2.0 0.00 0.00 0.00 72 1014.7
20260508052231 48 147 2.0 4.0 0.00 0.00 0.00 71 1014.7
20260508051731 48 149 2.0 3.0 0.00 0.00 0.00 71 1014.7
20260508051231 48 147 2.0 2.0 0.00 0.00 0.00 71 1014.7
20260508050732 48 147 1.0 2.0 0.00 0.00 0.00 70 1014.6
20260508050231 48 148 2.0 2.0 0.00 0.00 0.00 70 1014.6
20260508045732 48 144 2.0 2.0 0.00 0.00 0.00 71 1014.6
20260508045231 48 151 1.0 2.0 0.00 0.00 0.00 71 1014.7
20260508044731 48 162 1.0 2.0 0.00 0.00 0.00 70 1014.7
20260508044232 48 179 2.0 4.0 0.00 0.00 0.00 71 1014.6
20260508043732 48 163 2.0 2.0 0.00 0.00 0.00 71 1014.5
20260508043231 47 161 1.0 2.0 0.00 0.00 0.00 71 1014.5
20260508042731 48 178 1.0 2.0 0.00 0.00 0.00 71 1014.5
20260508042231 48 148 1.0 2.0 0.00 0.00 0.00 71 1014.5
20260508041733 48 172 1.0 2.0 0.00 0.00 0.00 71 1014.5
20260508041231 48 185 0.0 1.0 0.00 0.00 0.00 70 1014.6
20260508040733 48 197 1.0 2.0 0.00 0.00 0.00 70 1014.6
20260508040231 48 186 1.0 2.0 0.00 0.00 0.00 68 1014.5
20260508035731 48 186 1.0 2.0 0.00 0.00 0.00 68 1014.4
20260508035231 49 150 1.0 2.0 0.00 0.00 0.00 68 1014.4
20260508034731 48 165 1.0 2.0 0.00 0.00 0.00 68 1014.4
20260508034232 48 146 2.0 2.0 0.00 0.00 0.00 68 1014.5
20260508033731 48 148 1.0 2.0 0.00 0.00 0.00 68 1014.5
20260508033232 49 155 0.0 2.0 0.00 0.00 0.00 67 1014.5
20260508032731 49 156 2.0 2.0 0.00 0.00 0.00 67 1014.5
20260508032234 49 160 1.0 2.0 0.00 0.00 0.00 67 1014.5
20260508031732 49 150 2.0 3.0 0.00 0.00 0.00 68 1014.4
20260508031231 49 197 1.0 2.0 0.00 0.00 0.00 67 1014.5
20260508030732 48 193 1.0 2.0 0.00 0.00 0.00 67 1014.5
20260508030231 48 196 0.0 2.0 0.00 0.00 0.00 67 1014.4
20260508025731 47 170 1.0 2.0 0.00 0.00 0.00 70 1014.3
20260508025232 47 136 2.0 4.0 0.00 0.00 0.00 74 1014.2
20260508024732 47 161 0.0 2.0 0.00 0.00 0.00 73 1014.3
20260508024231 47 135 0.0 1.0 0.00 0.00 0.00 72 1014.4
20260508023732 47 140 1.0 2.0 0.00 0.00 0.00 71 1014.5
20260508023232 47 115 0.0 0.0 0.00 0.00 0.00 71 1014.5
20260508022731 47 233 0.0 2.0 0.00 0.00 0.00 71 1014.5
20260508022232 47 0 0.0 0.0 0.00 0.00 0.00 71 1014.4
20260508021732 47 149 0.0 2.0 0.00 0.00 0.00 72 1014.3
20260508021232 47 143 0.0 1.0 0.00 0.00 0.00 72 1014.3
20260508020731 47 140 0.0 1.0 0.00 0.00 0.00 71 1014.3
20260508020232 47 127 0.0 1.0 0.00 0.00 0.00 72 1014.3
20260508015731 47 212 0.0 1.0 0.00 0.00 0.00 72 1014.3
20260508015231 48 134 0.0 1.0 0.00 0.00 0.00 71 1014.2
20260508014732 48 0 0.0 0.0 0.00 0.00 0.00 71 1014.3
20260508014232 48 0 0.0 0.0 0.00 0.00 0.00 70 1014.3
20260508013733 48 119 0.0 1.0 0.00 0.00 0.00 70 1014.2
20260508013231 48 0 0.0 0.0 0.00 0.00 0.00 69 1014.3
20260508012732 49 152 0.0 0.0 0.00 0.00 0.00 68 1014.3
20260508012231 49 0 0.0 0.0 0.00 0.00 0.00 66 1014.3
20260508011731 49 0 0.0 0.0 0.00 0.00 0.00 65 1014.3
20260508011233 49 130 0.0 1.0 0.00 0.00 0.00 64 1014.2
20260508010731 50 148 0.0 1.0 0.00 0.00 0.00 62 1014.3
20260508010232 50 0 0.0 0.0 0.00 0.00 0.00 60 1014.2
20260508005731 51 0 0.0 0.0 0.00 0.00 0.00 58 1014.2
20260508005231 51 0 0.0 0.0 0.00 0.00 0.00 57 1014.2
20260508004731 52 0 0.0 0.0 0.00 0.00 0.00 55 1014.2
20260508004231 53 173 0.0 1.0 0.00 0.00 0.00 54 1014.2
20260508003731 54 0 0.0 0.0 0.00 0.00 0.00 52 1014.1
20260508003231 55 0 0.0 0.0 0.00 0.00 0.00 51 1014.1
20260508002731 55 0 0.0 0.0 0.00 0.00 0.00 50 1014.1